Retour au catalogue

COSMOS 1257

ActifNavigationLEO
NORAD 12327·PAYLOAD·🇷🇺 Russia

Lancé Mar 6, 1981 depuis Plesetsk Cosmodrome

Loading…

Prochains Passages (prochaines 24 heures)

TLE

FraisSource: Space-Track

Époque: Sep 14, 2026, 14:37 UTC

1 12327U 81022H   26257.60950507 -.00000007  00000-0  62373-4 0  9995
2 12327  74.0290 300.9653 0006582 168.7941 359.8779 12.47858730 73825

Suivez COSMOS 1257 en temps réel avec AllMySat

Download on the App Store